Regional Weather Roundup
Issued by NWS

Home | Current Version | Previous Version | Graphics & Text | Print | Product List | Glossary On
Versions: 1 2 3 4 5 6 7 8 9 10 11 12 13 14 15 16 17 18 19 20 21 22 23 24 25 26 27 28 29 30 31 32 33 34 35 36 37 38 39 40 41 42 43 44 45 46 47 48 49 50
000
ASUS43 KLOT 050506
RWRIL

ILLINOIS REGIONAL WEATHER ROUNDUP
NATIONAL WEATHER SERVICE CHICAGO/ROMEOVILLE IL
1100 PM CST WED MAR 04 2015

NOTE: "FAIR" INDICATES FEW OR NO CLOUDS BELOW 12,000 FEET WITH NO
SIGNIFICANT WEATHER AND/OR OBSTRUCTIONS TO VISIBILITY.

* THESE STATIONS ARE NOT UNDER NWS QUALITY CONTROL. THEY ALSO MAY NOT
  REPORT WEATHER SUCH AS PRECIPITATION OR FOG.

ILZ001-002-007-009-015-016-024-050600-
NORTHWEST ILLINOIS

CITY           SKY/WX    TMP DP  RH WIND       PRES   REMARKS
MOLINE         CLOUDY    13   0  56 N9        30.42R WCI   1
STERLING*      CLEAR      9   0  66 W5        30.40R WCI   0
SAVANNA*       CLEAR      8  -2  62 NW7       30.41S WCI  -3
$$

ILZ003-004-008-010-011-017-018-050600-
NORTH CENTRAL ILLINOIS

CITY           SKY/WX    TMP DP  RH WIND       PRES   REMARKS
ROCKFORD       PTCLDY     8  -4  58 NW9       30.37S WCI  -5
FREEPORT*      CLEAR      6  -4  63 W9        30.38S WCI  -8
ROCHELLE*      CLEAR      8  -2  64 NW6       30.38R WCI  -2
DE KALB*       CLEAR      5  -4  67 NW9       30.36R WCI  -9
PERU*          FAIR      11   2  67 NW13      30.40R WCI  -4
$$

ILZ005-006-012>014-019>023-050600-
NORTHEAST ILLINOIS

CITY           SKY/WX    TMP DP  RH WIND       PRES   REMARKS
CHICAGO-OHARE  CLOUDY    12  -1  56 NW10      30.34R WCI  -1
CHICAGO-MIDWAY MOCLDY    15   0  51 NW12      30.35R WCI   2
AURORA         CLEAR      9  -2  61 NW12      30.36R WCI  -6
LANSING*       PTCLDY    15   1  54 NW5       30.35R WCI   7
JOLIET*        PTCLDY    12  -1  54 NW6       30.37R WCI   3
WAUKEGAN       PTCLDY     8  -4  58 W5        30.34R WCI   0
DUPAGE AIRPORT CLEAR     11  -2  56 NW10      30.34R WCI  -3
KANKAKEE*      MOCLDY    15   3  59 NW10      30.37R WCI   3
WHEELING       PTCLDY    12  -2  53 NW8       30.37R WCI   0
MORRIS*        CLEAR     11   2  65 NW10      30.36S WCI  -2
ROMEOVILLE*    CLEAR     12   0  57 NW10      30.35S WCI  -1
NORTHERLY ISL    N/A     17   2  51 W10         N/A  WCI   5
$$

LMZ740>746-050600-
SOUTHERN LAKE MICHIGAN

STATION/POSITION SKY/WX   TEMP    WIND        PRES    VSBY  WAVE
                          AIR SEA DIR/SP/G                  HT/PER
                          (F)     (DEG/KT/KT) (MB)    (MI)  (FT/S)
WAUKEGAN HARBOR            12                   N/A
HARRISON CRIB              16     300/ 16/ 20   N/A
BURNHAM HARBOR             16     270/  7/ 13   N/A
CALUMET HARBOR             16     280/  9/ 14 1026.3R
MICHIGAN CITY              17     280/ 12/ 14   N/A
$$

ILZ025>027-034>036-040-047-049-050-058-095>099-050600-
WEST-CENTRAL ILLINOIS

CITY           SKY/WX    TMP DP  RH WIND       PRES   REMARKS
QUINCY         MOCLDY    18   5  57 CALM      30.39R
GALESBURG*     CLOUDY    13   4  69 N9        30.40R WCI   1
MACOMB*        CLOUDY    15   8  75 N6        30.42S WCI   6
JACKSONVILLE*  MOCLDY    18   9  66 NW3       30.38F
PITTSFIELD*    PTCLDY    19  10  66 CALM      30.39S
$$

ILZ028>032-037-038-041>044-048-051>054-059>061-050600-
CENTRAL ILLINOIS

CITY           SKY/WX    TMP DP  RH WIND       PRES   REMARKS
PONTIAC        PTCLDY    14   7  72 NW10      30.39R WCI   2
BLOOMINGTON    PTCLDY    16   4  59 NW13      30.36S WCI   2
DECATUR        CLOUDY    18   4  54 NW15      30.36S WCI   4
PEORIA         MOCLDY    16   0  49 N9        30.40R WCI   4
LACON*         PTCLDY    11   1  63 NW9       30.40R WCI  -1
LINCOLN*       MOCLDY    19   6  55 N6        30.40R WCI  11
SPRINGFIELD    MOCLDY    19   5  54 N6        30.38R WCI  11
TAYLORVILLE    MOCLDY    18   9  68 N10       30.35F WCI   6
$$

ILZ033-039-045-046-055>057-062-063-050600-
EAST-CENTRAL ILLINOIS

CITY           SKY/WX    TMP DP  RH WIND       PRES   REMARKS
CHAMPAIGN      CLOUDY    16   7  67 NW13      30.35R WCI   2
DANVILLE*      CLOUDY    16   6  65 NW10      30.31R WCI   3
RANTOUL*       MOCLDY    18   8  65 NW12      30.34S WCI   5
MATTOON        CLOUDY    17   8  67 N10       30.34R WCI   5
PARIS*         CLOUDY    17   9  69 N7        30.35S WCI   8
$$

ILZ079-100>102-050600-
SOUTHWEST ILLINOIS

CITY           SKY/WX    TMP DP  RH WIND       PRES   REMARKS
ALTON          MOCLDY    21   3  46 NW3       30.40R
BELLEVILLE     CLOUDY    21   8  56 N10       30.38R WCI  10
CAHOKIA*       CLOUDY    23   6  48 N9        30.40R WCI  13
SPARTA*        CLOUDY    21   7  54 N9        30.38S WCI  10
$$

ILZ064>066-069>071-074>076-080>082-084>086-088>090-092>094-050600-
SOUTH-CENTRAL ILLINOIS

CITY           SKY/WX    TMP DP  RH WIND       PRES   REMARKS
CARBONDALE     CLOUDY    21   6  52 N12G21    30.35S WCI   9
CAIRO*         CLOUDY    22  19  91 N10       30.34R WCI  11
EFFINGHAM*     CLOUDY    19   3  49 NW8       30.38R WCI   9
MARION         CLOUDY    21  10  63 CALM      30.34S
MT. VERNON     CLOUDY    21   3  45 N7        30.34F WCI  13
CENTRALIA*     CLOUDY    21   6  53 N13       30.34F WCI   8
SALEM*         CLOUDY    22   7  51 N13G18    30.35S WCI  10
METROPOLIS*    CLOUDY    19  19 100 N7        30.32R WCI  10
$$

ILZ067-068-072-073-078-083-087-091-050600-
SOUTHEAST ILLINOIS

CITY           SKY/WX    TMP DP  RH WIND       PRES   REMARKS
LAWRENCEVILLE  CLOUDY    20   7  57 N17       30.33S WCI   5
FLORA*         CLOUDY    20   6  54 N12       30.35S WCI   8
FAIRFIELD*     CLOUDY    21   6  51 N13       30.33R WCI   8
HARRISBURG*    CLOUDY    21  10  64 N5        30.35S WCI  14
ROBINSON*      CLOUDY    19   7  58 N12       30.35S WCI   7
CARMI*         CLOUDY    22  12  64 CALM      30.32S
$$

ABBREVIATIONS USED IN REMARKS
   TC - TEMPERATURE IN CELSIUS
  WCI - WIND CHILL INDEX
   HX - HEAT INDEX
  VSB - VISIBILITY
$$



USA.gov is the U.S. government's official web portal to all federal, state and local government web resources and services.